Location: Gro�wechsungen
(51.4926°N, 10.6901°E)
Time: 12:36:51
(UTC+00:00)

Cosmos 2082 Rocket - Pass Details

Date: 22 January 2021
Orbit: 832 x 854 km, 71.0° (Epoch: 04 March)

Event Time Altitude Azimuth Distance (km) Brightness Sun altitude
Rises 17:18:40 0° 330° (NNW) 3,437 5.6 -13.6°
Reaches altitude 10° 17:21:39 10° 344° (NNW) 2,499 4.7 -14.0°
Maximum altitude 17:26:11 23° 37° (NE) 1,732 3.4 -14.7°
Enters shadow 17:27:46 21° 60° (ENE) 1,840 3.4 -15.0°
